星链-31709 (STARLINK-31709 )

导读

STARLINK-31709是美国太空探索技术公司SpaceX星链星座的卫星,于2024年4月2日发射入轨,属于星链网络低轨卫星互联网组网的组成部分。星链项目旨在构建覆盖全球的卫星互联网通信系统,该卫星的发射进一步扩充了星链星座的规模,助力提升全球范围通信网络的覆盖能力与服务稳定性。

基本信息
目录编号:
59383
目录名称:
STARLINK-31709
国际标识:
2024-062K
轨道中心:
EARTH
卫星名称:
星链-31709
卫星全名:
星链-31709 (STARLINK-31709 )
卫星状态:
已陨落 最后检测时间 2025-05-23
发射日期:
2024-04-02 UTC
国别 :
美国 (US)
星等 :
--
该卫星已列入 空间交会检测服务 Space Conjunction Data Service (SCDS) ,当前飞行风险评估等级: 无高风险
轨道信息
数据来源 国际轨道数据
星历时间: 2025-05-23T20:29:24+0800
轨道信息已过期476天
半长轴: 6564.392km
偏心率: 0.0003113
轨道倾角: 53.123°
近地点辐角 152.191°
升交点赤经 148.895°
平近点角 349.001°
近地点: 184.213km
远地点: 188.301km
周期: 88.217分钟
每日圈数: 16.323415
详细信息
固有亮度:
5
最大亮度:
0.3
卫星平台:
Starlink v2.0 mini
覆盖范围:
全球
运营商:
太空探索技术公司
运营商所在国:
美国
制造商(研发单位):
太空探索技术公司
制造商所在国:
美国
使用方式:
暂无
卫星简介
星链(Starlink)计划是由太空探索技术公司(SpaceX)提出的一个巨型低轨卫星互联网星座项目,计划在2019年至2024年间在太空搭建由约1.2万颗卫星组成的“星链”网络,其中1584颗将部署在地球上空550千米处的近地轨道,并从2020年开始工作。该卫星仍在工作。
与全量物体交会距离演化趋势
与全量物体交会风险概率演化趋势